Wind_Speed
13 9 6 7 7 11 13 17 17 17 18 18 17 16 15 13 12 11 9 8 7 6 5 4 4 4 4 4 4 4 3 2 2 2 2 2 2 2 1 1 1 1 1
12 10 6 4 4 8 12 15 17 18 19 18 17 16 15 14 13 12 10 9 9 7 6 6 5 5 5 5 5 4 4 4 3 3 3 2 2 2 2 2 1 1 1
11 9 5 3 4 8 12 14 14 16 18 18 17 17 15 14 14 13 12 11 10 9 8 7 7 6 6 5 5 5 4 4 3 3 2 2 2 2 2 1 1 1 1
11 9 5 3 3 6 10 14 15 16 17 17 18 17 15 14 14 14 13 12 11 10 9 8 7 7 6 5 5 4 4 3 2 2 1 1 1 1 1 1 1 1 1
11 10 7 3 1 4 8 12 13 16 17 17 16 16 15 15 15 14 13 13 12 11 10 9 8 8 7 6 5 4 4 3 2 2 1 1 1 1 1 2 2 2 2
10 10 7 5 2 3 6 9 12 15 17 17 16 16 16 16 15 15 14 14 13 12 12 11 10 9 8 7 6 6 5 4 4 4 3 3 3 3 3 4 5 5 5
9 9 7 5 3 2 5 9 12 14 16 17 16 17 16 16 16 15 14 14 13 13 12 12 11 10 10 9 9 8 7 7 6 6 6 6 6 6 7 7 7 8 8
7 8 6 4 4 3 4 7 11 13 14 15 16 16 16 16 15 15 15 15 14 14 13 13 13 12 12 12 11 11 10 9 9 9 9 9 9 10 10 10 11 11 12
6 5 6 5 4 3 4 7 10 12 13 15 15 15 15 15 15 15 15 15 15 15 15 15 14 14 14 14 14 14 13 13 13 13 13 13 13 13 14 14 14 14 15
6 3 3 3 2 2 2 6 8 10 11 13 14 14 14 15 15 15 16 16 16 16 17 16 16 16 17 17 17 17 17 16 16 16 16 17 17 17 17 18 18 18 18
5 4 3 2 2 0 1 4 7 9 10 11 13 14 15 15 16 16 16 17 17 18 18 18 18 18 19 19 19 20 20 20 19 19 20 20 20 21 21 21 21 21 21
5 4 3 2 2 1 2 3 5 7 8 10 12 13 14 15 16 17 18 18 19 20 20 20 20 21 21 22 22 22 22 22 22 23 23 23 23 24 24 24 24 24 24
5 5 4 4 3 3 4 4 5 7 8 9 11 13 14 15 17 18 19 20 20 21 22 22 23 23 24 24 25 25 25 25 25 25 26 26 26 26 27 27 27 28 28
6 6 5 6 5 6 7 7 8 9 10 11 12 14 15 16 17 19 19 21 22 23 23 24 25 26 26 27 27 27 27 28 28 28 29 29 29 30 30 30 31 31 31
8 7 7 7 8 8 8 9 10 11 12 12 14 16 17 18 19 20 21 22 23 24 25 26 27 28 28 29 29 29 30 31 31 31 32 32 33 33 34 34 34 34 34
9 8 8 8 8 9 10 11 11 13 14 14 15 16 17 17 18 20 22 23 24 25 26 27 29 29 30 32 32 32 33 34 34 34 35 35 36 36 37 37 37 37 37
10 10 11 11 11 12 13 14 14 15 16 17 17 17 18 19 20 22 22 23 24 25 27 29 30 30 31 32 34 34 33 34 34 36 37 37 38 39 40 40 40 40 41
13 13 12 13 13 14 15 15 16 17 18 18 19 20 21 22 24 24 24 25 26 27 29 30 31 32 33 34 35 36 36 35 37 38 39 41 41 41 42 43 43 43 44
15 14 14 15 15 16 16 17 17 19 20 21 23 23 24 25 25 25 26 28 29 31 32 32 34 35 36 37 37 39 39 40 40 41 43 43 44 44 44 45 45 46 46
16 15 15 16 17 17 18 19 20 21 22 24 25 26 27 27 28 28 29 30 33 34 34 34 37 38 38 39 40 40 40 41 42 42 43 43 44 46 47 47 48 48 49
16 15 16 17 18 19 20 21 22 23 25 26 27 27 29 30 31 32 32 33 34 35 36 37 38 38 39 40 40 40 41 42 42 43 44 45 46 48 49 50 51 52 53
17 17 18 19 19 20 21 23 24 25 27 28 29 30 31 32 33 34 35 35 36 36 37 38 38 39 40 41 41 41 42 43 44 45 46 48 49 51 52 53 55 57 58
18 18 19 20 21 22 23 25 26 28 30 31 31 33 34 34 35 35 35 36 37 38 39 40 41 41 41 42 43 44 46 47 48 49 51 52 54 55 57 58 60 62 63
20 20 21 21 23 24 25 26 28 29 31 32 33 34 35 36 36 36 36 37 37 39 40 41 42 43 44 45 46 48 49 51 52 53 55 57 59 61 62 64 65 66 68
19 20 21 22 24 25 26 28 29 31 32 33 34 34 35 36 37 38 38 39 39 40 41 42 44 45 47 48 50 51 53 55 56 58 60 62 63 64 66 67 68 69 70
20 21 23 24 25 27 28 29 30 31 32 33 34 35 36 37 38 39 39 40 41 42 44 45 46 47 48 50 52 55 57 58 60 61 62 63 64 65 65 66 66 67 67
Wind_Direction
335 330 303 278 249 219 207 197 197 195 197 200 205 208 211 216 214 214 217 217 211 206 195 187 180 169 156 142 135 133 131 126 116 102 90 79 71 67 55 39 26 21 300
347 343 319 295 217 204 199 194 191 194 196 200 203 203 207 209 209 210 212 207 204 201 191 181 172 161 153 150 144 137 131 123 116 109 102 91 79 69 62 53 40 29 1
354 351 343 302 216 198 199 195 191 194 194 197 197 199 202 203 204 207 206 204 202 199 191 183 177 171 165 161 153 146 141 137 127 116 106 94 78 68 65 61 36 6 342
6 1 350 315 230 208 199 195 191 191 190 189 192 196 201 202 202 203 205 205 202 199 194 189 185 184 181 178 173 165 160 153 148 134 115 91 70 50 41 40 25 359 322
11 8 7 10 199 192 188 188 193 194 192 190 194 198 201 202 203 203 206 204 202 200 198 197 197 197 196 197 195 190 188 189 190 190 187 209 267 298 314 319 320 318 306
12 9 15 35 69 183 188 191 195 193 191 193 197 199 202 205 205 203 205 205 204 204 203 205 206 209 210 211 213 216 220 226 231 236 239 248 259 270 286 298 302 303 301
15 15 14 24 42 133 177 186 189 188 190 195 200 201 204 206 204 204 206 207 207 209 211 213 216 220 222 223 227 232 238 245 252 256 258 262 267 274 280 286 291 293 293
17 20 20 29 41 86 143 167 176 181 187 195 200 202 205 206 205 207 210 212 214 217 221 225 228 230 233 235 238 242 246 252 259 264 268 270 273 278 282 284 286 286 286
16 22 31 37 45 80 135 160 172 184 192 196 198 200 203 205 208 213 215 219 223 226 230 234 237 239 241 244 247 250 253 257 263 269 273 276 277 280 282 284 285 285 283
18 11 15 18 30 76 143 175 182 182 190 197 200 203 208 211 214 219 223 227 231 236 239 241 243 245 248 251 253 255 258 261 266 270 273 276 279 281 282 283 285 284 283
2 9 4 354 353 349 190 192 200 198 200 203 206 211 216 218 222 225 229 233 237 241 243 245 247 250 251 254 256 259 262 265 267 270 273 275 278 280 281 283 284 284 284
336 339 332 309 286 265 237 212 205 209 214 216 219 223 226 230 233 236 239 241 244 246 247 249 251 254 255 257 259 261 264 267 270 272 274 276 278 280 281 281 282 282 283
320 315 306 296 275 255 246 230 229 230 229 230 233 235 237 238 240 243 246 248 250 251 251 252 254 256 258 260 263 265 267 269 270 272 274 276 277 279 280 281 281 282 282
302 291 289 286 274 259 253 244 242 244 242 244 244 243 244 245 247 250 251 252 253 253 254 256 257 259 261 263 265 267 269 271 272 273 274 275 276 277 278 279 279 279 280
290 282 276 278 273 267 262 255 252 250 252 253 251 254 250 251 252 254 255 255 255 256 256 257 259 261 263 264 266 268 269 270 271 272 272 273 274 275 276 277 278 278 278
285 279 274 275 275 268 270 265 264 263 261 260 262 264 256 261 262 259 261 258 258 258 259 260 262 264 266 267 267 268 269 270 270 271 272 272 273 274 275 276 276 276 277
289 286 281 279 279 272 273 272 272 272 273 270 270 272 270 273 271 268 267 262 263 266 266 266 266 267 268 269 268 269 271 272 272 273 274 274 273 274 275 275 275 275 275
285 284 281 279 278 275 276 277 276 276 278 278 279 279 275 275 274 272 270 271 271 272 272 270 270 272 272 273 273 274 273 274 274 274 274 275 274 275 274 274 274 274 274
279 280 277 275 276 277 280 279 279 280 281 282 284 282 282 280 281 282 279 275 274 276 275 274 274 274 273 273 272 273 273 272 273 274 274 274 273 273 273 273 273 273 273
272 274 275 276 276 278 280 282 283 283 283 285 286 284 284 283 284 283 283 282 280 280 279 278 277 277 275 273 273 273 274 274 274 274 274 274 274 273 273 273 273 273 273
269 270 272 272 273 275 277 279 282 284 286 289 288 287 287 286 285 285 285 284 284 283 281 280 279 277 276 275 275 275 275 275 275 276 276 277 276 276 276 277 276 276 276
267 269 270 271 272 273 275 278 281 284 286 288 288 288 288 287 286 286 286 286 284 283 282 281 279 278 278 277 277 277 277 277 278 278 278 278 278 279 280 280 280 280 279
265 267 269 272 274 274 276 279 282 284 286 287 288 288 289 288 287 287 288 286 284 283 282 281 280 280 280 279 279 279 279 280 280 280 280 280 280 281 280 280 280 280 280
264 266 270 273 275 277 278 280 282 284 285 286 287 289 289 288 288 288 288 287 286 284 284 284 284 283 283 282 282 281 281 282 282 282 282 282 282 282 282 281 281 281 280
265 270 273 275 277 279 280 282 283 284 285 287 288 288 288 289 288 288 288 287 287 286 285 284 284 285 284 284 283 284 284 283 284 284 284 284 284 284 284 283 283 282 282
270 272 274 276 278 280 282 284 285 286 287 289 290 290 290 290 289 288 288 287 287 287 287 286 286 286 286 285 286 286 286 286 286 286 286 285 285 284 284 284 283 283 282
Height
5839 5837 5836 5837 5837 5838 5839 5843 5847 5851 5855 5859 5863 5866 5868 5871 5873 5874 5876 5877 5878 5879 5880 5880 5881 5881 5881 5881 5881 5881 5881 5881 5881 5881 5881 5881 5881 5881 5881 5881 5881 5881 5880
5838 5836 5835 5834 5835 5837 5838 5841 5844 5848 5853 5857 5860 5863 5866 5868 5871 5873 5874 5875 5877 5878 5879 5879 5880 5881 5881 5881 5881 5881 5881 5882 5882 5882 5881 5881 5882 5881 5881 5881 5881 5881 5880
5838 5836 5834 5833 5834 5835 5837 5840 5843 5846 5850 5854 5858 5861 5864 5866 5869 5871 5872 5874 5875 5877 5878 5878 5879 5880 5880 5881 5881 5881 5881 5882 5882 5882 5882 5882 5881 5881 5881 5881 5881 5880 5880
5839 5837 5835 5834 5833 5834 5836 5838 5841 5844 5848 5852 5856 5859 5862 5864 5867 5869 5871 5872 5874 5875 5876 5877 5878 5879 5880 5880 5881 5881 5881 5881 5881 5881 5881 5881 5881 5881 5881 5881 5880 5880 5880
5839 5837 5835 5834 5833 5834 5835 5837 5840 5843 5846 5850 5854 5857 5860 5863 5865 5867 5869 5871 5873 5874 5875 5876 5877 5878 5879 5879 5880 5880 5880 5880 5881 5880 5880 5880 5880 5880 5880 5880 5879 5879 5879
5838 5837 5835 5835 5834 5834 5835 5836 5839 5841 5845 5849 5852 5856 5858 5861 5863 5865 5867 5869 5871 5872 5874 5875 5876 5877 5877 5878 5878 5879 5879 5879 5879 5879 5879 5879 5879 5879 5878 5878 5877 5877 5877
5838 5837 5836 5836 5835 5834 5835 5836 5838 5841 5844 5848 5851 5854 5857 5859 5861 5863 5865 5867 5869 5871 5872 5873 5874 5875 5875 5876 5876 5877 5877 5877 5877 5877 5877 5877 5877 5876 5876 5876 5875 5874 5874
5839 5838 5837 5836 5836 5835 5835 5836 5838 5841 5844 5847 5850 5853 5855 5857 5859 5862 5863 5865 5867 5869 5870 5871 5872 5872 5873 5874 5874 5874 5874 5874 5874 5874 5874 5874 5874 5873 5873 5873 5872 5871 5871
5839 5839 5838 5838 5837 5837 5836 5837 5839 5841 5843 5846 5849 5851 5853 5855 5858 5860 5861 5863 5865 5866 5867 5868 5869 5870 5870 5871 5871 5871 5871 5871 5871 5871 5870 5870 5870 5869 5869 5868 5868 5868 5867
5840 5839 5839 5839 5839 5838 5838 5838 5839 5841 5843 5845 5848 5850 5852 5854 5855 5857 5859 5861 5862 5863 5864 5865 5865 5866 5867 5867 5867 5867 5867 5867 5867 5866 5866 5865 5865 5864 5864 5863 5862 5862 5862
5840 5839 5839 5839 5839 5838 5838 5839 5839 5841 5842 5844 5846 5848 5850 5851 5853 5855 5856 5857 5858 5859 5860 5861 5861 5862 5862 5862 5863 5863 5863 5862 5862 5861 5861 5860 5859 5858 5858 5857 5856 5856 5855
5840 5839 5839 5839 5838 5838 5838 5838 5839 5840 5842 5843 5845 5846 5848 5849 5850 5851 5852 5853 5854 5855 5855 5856 5856 5857 5857 5857 5857 5857 5857 5857 5856 5855 5855 5854 5853 5852 5851 5850 5849 5849 5848
5839 5839 5838 5838 5838 5838 5838 5838 5839 5840 5841 5842 5843 5844 5845 5846 5847 5848 5849 5849 5850 5850 5850 5851 5851 5851 5851 5851 5851 5851 5850 5850 5849 5849 5848 5847 5846 5845 5844 5843 5842 5841 5840
5837 5837 5837 5836 5836 5837 5837 5837 5837 5838 5838 5839 5840 5841 5842 5842 5843 5843 5844 5844 5844 5845 5845 5845 5845 5845 5845 5844 5844 5844 5843 5843 5842 5841 5840 5839 5838 5837 5835 5834 5833 5832 5831
5834 5834 5834 5834 5835 5835 5835 5835 5835 5835 5835 5836 5836 5836 5836 5837 5837 5838 5838 5838 5838 5838 5838 5838 5837 5837 5837 5837 5836 5835 5835 5834 5833 5833 5831 5830 5829 5828 5826 5825 5824 5822 5821
5831 5831 5831 5831 5831 5832 5832 5831 5831 5831 5831 5831 5831 5831 5830 5831 5831 5831 5831 5831 5831 5830 5830 5830 5829 5828 5829 5828 5827 5827 5826 5825 5824 5823 5821 5820 5819 5818 5816 5815 5814 5812 5811
5827 5826 5826 5827 5827 5827 5827 5827 5827 5827 5826 5826 5826 5825 5824 5825 5825 5824 5824 5823 5823 5823 5822 5821 5820 5820 5820 5819 5818 5817 5816 5815 5814 5813 5811 5810 5808 5807 5805 5804 5802 5801 5799
5822 5821 5821 5822 5822 5822 5822 5822 5822 5822 5821 5821 5820 5819 5819 5818 5817 5817 5817 5816 5816 5815 5814 5812 5812 5811 5810 5809 5809 5807 5806 5804 5803 5801 5800 5798 5797 5795 5793 5791 5790 5788 5786
5817 5817 5817 5817 5817 5817 5817 5816 5816 5816 5815 5815 5814 5813 5812 5811 5810 5809 5808 5807 5807 5806 5804 5803 5802 5801 5800 5799 5798 5796 5794 5793 5791 5789 5787 5786 5784 5782 5780 5778 5776 5775 5773
5811 5811 5812 5812 5811 5811 5811 5811 5810 5810 5809 5808 5807 5806 5805 5803 5803 5802 5800 5799 5798 5796 5795 5793 5792 5790 5788 5787 5785 5784 5782 5780 5778 5776 5773 5771 5770 5768 5765 5763 5762 5760 5758
5805 5806 5806 5806 5806 5806 5805 5805 5804 5803 5802 5801 5799 5798 5797 5795 5794 5792 5791 5789 5788 5786 5784 5782 5780 5778 5776 5775 5773 5771 5769 5767 5765 5762 5760 5757 5755 5753 5750 5748 5745 5743 5741
5800 5800 5801 5801 5800 5800 5799 5798 5797 5796 5795 5793 5791 5790 5788 5787 5785 5783 5781 5779 5777 5775 5773 5771 5769 5766 5764 5763 5760 5758 5756 5754 5751 5749 5746 5743 5740 5737 5734 5731 5728 5725 5722
5794 5794 5794 5794 5793 5793 5792 5791 5790 5788 5786 5784 5783 5781 5779 5777 5775 5773 5771 5768 5766 5765 5762 5760 5757 5755 5752 5750 5747 5745 5742 5739 5737 5734 5730 5727 5724 5720 5717 5713 5709 5705 5702
5787 5787 5787 5787 5786 5785 5784 5783 5781 5780 5778 5775 5773 5771 5769 5767 5765 5762 5760 5758 5756 5753 5751 5748 5745 5742 5739 5736 5733 5730 5727 5724 5720 5717 5713 5709 5705 5701 5697 5693 5688 5684 5680
5780 5781 5780 5780 5779 5777 5776 5774 5773 5771 5769 5766 5764 5761 5759 5756 5754 5751 5749 5746 5744 5741 5738 5735 5731 5728 5725 5721 5718 5714 5710 5707 5703 5699 5694 5690 5685 5680 5675 5670 5665 5660 5656
5773 5773 5772 5772 5770 5769 5767 5765 5763 5761 5758 5756 5753 5751 5748 5746 5743 5740 5737 5734 5731 5727 5724 5721 5717 5713 5710 5705 5701 5697 5693 5688 5684 5679 5674 5669 5664 5659 5653 5648 5643 5637 5632